KC5L-11 Weather Reports


Display with metric or nautical units.
time (UTC)temp
F
wind
direction
speed
MPH
gust
MPH
rain 1hr
in
rain 24hr
in
rain mn
in
humidity
%
barometer
mb
20260504081510 63 39 5.0 0.0 0.00 0.00 0.00 1007.9
20260504080333 63 49 4.0 0.0 0.00 0.00 0.00 1008.0
20260504045740 67 49 5.0 0.0 0.00 0.00 0.00 1009.8
20260504044604 67 38 8.0 0.0 0.00 0.00 0.00 1009.9
20260504043426 68 35 6.0 0.0 0.00 0.00 0.00 1009.9
20260504042249 68 65 5.0 0.0 0.00 0.00 0.00 1010.0
20260504041112 68 46 7.0 0.0 0.00 0.00 0.00 1010.1
20260504035936 68 25 7.0 0.0 0.00 0.00 0.00 1010.1
20260504034759 68 18 11.0 0.0 0.00 0.00 0.00 1010.4
20260504033622 69 41 7.0 0.0 0.00 0.00 0.00 1010.2
20260504032445 69 82 7.0 0.0 0.00 0.00 0.00 1010.0
20260504031311 69 13 8.0 0.0 0.00 0.00 0.00 1010.1
20260504030130 70 38 12.0 0.0 0.00 0.00 0.00 1009.9
20260504024954 70 44 8.0 0.0 0.00 0.00 0.00 1009.9
20260504023816 71 52 6.0 0.0 0.00 0.00 0.00 1009.9
20260504022639 71 63 7.0 0.0 0.00 0.00 0.00 1009.8
20260504021502 71 49 9.0 0.0 0.00 0.00 0.00 1009.6
20260504020325 72 28 12.0 0.0 0.00 0.00 0.00 1009.5
20260504015148 73 32 7.0 0.0 0.00 0.00 0.00 1009.3
20260504014011 73 34 5.0 0.0 0.00 0.00 0.00 1009.1
20260504012834 74 20 5.0 0.0 0.00 0.00 0.00 1009.2
20260504011657 74 18 4.0 0.0 0.00 0.00 0.00 1009.3
20260504010520 75 21 7.0 0.0 0.00 0.00 0.00 1009.1
20260504005343 76 18 3.0 0.0 0.00 0.00 0.00 1009.0
20260504004206 77 34 9.0 0.0 0.00 0.00 0.00 1008.9
20260504003030 77 32 5.0 0.0 0.00 0.00 0.00 1008.8
20260504001852 78 48 3.0 0.0 0.00 0.00 0.00 1008.9
20260504000718 79 37 10.0 0.0 0.00 0.00 0.00 1009.0
20260503235538 79 15 5.0 0.0 0.00 0.00 0.00 1009.1
20260503234401 79 28 0.0 0.0 0.00 0.00 0.00 1009.3
20260503233224 80 13 5.0 0.0 0.00 0.00 0.00 1009.4
20260503232048 80 72 1.0 0.0 0.00 0.00 0.00 1009.4
20260503230910 81 42 4.0 0.0 0.00 0.00 0.00 1009.4
20260503225735 81 11 7.0 0.0 0.00 0.00 0.00 1009.2
20260503224557 82 48 4.0 0.0 0.00 0.00 0.00 1009.4
20260503223421 81 46 5.0 0.0 0.00 0.00 0.00 1009.8
20260503222243 81 14 5.0 0.0 0.00 0.00 0.00 1009.9
20260503221106 82 7 15.0 0.0 0.00 0.00 0.00 1010.2
20260503215929 82 32 7.0 0.0 0.00 0.00 0.00 1010.2
20260503214753 83 356 6.0 0.0 0.00 0.00 0.00 1010.5
20260503213616 83 45 6.0 0.0 0.00 0.00 0.00 1010.6
20260503212439 83 42 8.0 0.0 0.00 0.00 0.00 1010.9
20260503211302 82 25 6.0 0.0 0.00 0.00 0.00 1011.3
20260503210124 82 25 0.0 0.0 0.00 0.00 0.00 1011.5
20260503204948 81 84 0.0 0.0 0.00 0.00 0.00 1011.8
20260503203810 81 58 8.0 0.0 0.00 0.00 0.00 1011.8
20260503202634 80 350 3.0 0.0 0.00 0.00 0.00 1012.1
20260503201456 81 20 0.0 0.0 0.00 0.00 0.00 1012.3
20260503200320 80 27 4.0 0.0 0.00 0.00 0.00 1012.7
20260503195142 80 68 7.0 0.0 0.00 0.00 0.00 1012.8
20260503194005 79 25 3.0 0.0 0.00 0.00 0.00 1013.0
20260503192829 79 21 0.0 0.0 0.00 0.00 0.00 1013.1
20260503191652 79 38 8.0 0.0 0.00 0.00 0.00 1013.3
20260503190515 79 7 6.0 0.0 0.00 0.00 0.00 1013.6
20260503185338 80 342 5.0 0.0 0.00 0.00 0.00 1013.8
20260503184204 79 8 9.0 0.0 0.00 0.00 0.00 1013.9
20260503183024 79 8 7.0 0.0 0.00 0.00 0.00 1014.2
20260503181847 79 60 5.0 0.0 0.00 0.00 0.00 1014.4
20260503180710 79 349 4.0 0.0 0.00 0.00 0.00 1014.6
20260503175533 79 66 3.0 0.0 0.00 0.00 0.00 1014.8
20260503174355 79 304 0.0 0.0 0.00 0.00 0.00 1014.9
20260503173218 78 10 7.0 0.0 0.00 0.00 0.00 1015.3
20260503172043 78 44 7.0 0.0 0.00 0.00 0.00 1015.5
20260503172041 78 44 7.0 0.0 0.00 0.00 0.00 1015.5
20260503170904 78 353 5.0 0.0 0.00 0.00 0.00 1015.6
20260503150121 79 117 0.0 0.0 0.00 0.00 0.00 1016.2
20260503140312 75 256 0.0 0.0 0.00 0.00 0.00 1015.9
20260503130508 66 255 0.0 0.0 0.00 0.00 0.00 1015.4
20260503090112 61 342 0.0 0.0 0.00 0.00 0.00 1013.6